New Bern, NC

5:51 PM EDT on July 24, 2017 (GMT -0400)
Craven County Regional

Weather History for KEWN - December, 2011

Change the Weather History Date:

Tuesday, December 27, 2011

  Actual Average Record
Temperature  
Mean Temperature 51 °F 44 °F  
Max Temperature 67 °F 55 °F 79 °F (2015)
Min Temperature 35 °F 34 °F 13 °F (1948)
Degree Days  
Heating Degree Days 14 21  
Month to date heating degree days 372 484  
Since 1 July heating degree days 764 911  
Cooling Degree Days 0 0  
Month to date cooling degree days 6 0  
Year to date cooling degree days 2219 1900  
Growing Degree Days 2 (Base 50)    
Moisture  
Dew Point 53 °F    
Average Humidity 77    
Maximum Humidity 93    
Minimum Humidity 61    
Precipitation  
Precipitation 0.40 in 0.10 in 2.42 in (1949)
Month to date precipitation 0.73 2.98  
Year to date precipitation 39.89 52.33  
Snow  
Snow 0.00 in - - ()
Month to date snowfall 0.0  
Since 1 July snowfall 0.0  
Snow Depth 0.00 in    
Sea Level Pressure  
Sea Level Pressure 29.81 in    
Wind  
Wind Speed 10 mph (South)    
Max Wind Speed 24 mph    
Max Gust Speed 33 mph    
Visibility 7 miles    
Events Rain    
T = Trace of Precipitation, MM = Missing Value Source: NWS Daily Summary

Daily Weather History Graph

Daily Weather History Graph

Search for Another Location

Airport or City:

Trip Planner

Search our weather history database for the weather conditions in past years. The results will help you decide how hot, cold, wet, or windy it might be!

Date:

Astronomy

Dec. 27, 2011 Rise Set
Actual Time 7:14 AM EST 5:03 PM EST
Civil Twilight 6:46 AM EST 5:31 PM EST
Nautical Twilight 6:15 AM EST 6:03 PM EST
Astronomical Twilight 5:44 AM EST 6:34 PM EST
Moon 9:15 AM EST (12/27) 8:27 PM EST (12/27)
Length of Visible Light 10h 44m
Length of Day
9h 48m
Waxing Crescent, 11% of the Moon is Illuminated
Dec 27
Waxing Crescent
Jan 1
First Quarter
Jan 9
Full
Jan 16
Last Quarter
Jan 23
New

Hourly Weather History & Observations

Time (EST) Temp. Windchill Dew Point Humidity Pressure Visibility Wind Dir Wind Speed Gust Speed Precip Events Conditions
12:54 AM 37.0 °F - 35.1 °F 93% 30.27 in 10.0 mi Calm Calm - N/A   Clear
1:54 AM 39.0 °F - 36.0 °F 89% 30.25 in 10.0 mi Calm Calm - N/A   Clear
2:54 AM 42.1 °F - 37.9 °F 85% 30.23 in 10.0 mi Calm Calm - N/A   Scattered Clouds
3:54 AM 44.1 °F 41.5 °F 36.0 °F 73% 30.17 in 10.0 mi East 4.6 mph - N/A   Scattered Clouds
4:54 AM 44.1 °F 41.5 °F 37.9 °F 79% 30.17 in 10.0 mi NE 4.6 mph - N/A   Overcast
5:54 AM 45.0 °F 41.2 °F 37.9 °F 76% 30.14 in 10.0 mi East 6.9 mph - N/A   Overcast
6:54 AM 46.9 °F - 39.0 °F 74% 30.08 in 10.0 mi Variable 4.6 mph - N/A   Mostly Cloudy
7:54 AM 48.0 °F - 42.1 °F 80% 30.08 in 10.0 mi ESE 4.6 mph - N/A   Scattered Clouds
8:54 AM 50.0 °F - 44.1 °F 80% 30.03 in 10.0 mi Variable 3.5 mph - 0.00 in   Overcast
9:54 AM 55.0 °F - 48.9 °F 80% 29.96 in 10.0 mi SE 5.8 mph - N/A   Overcast
10:54 AM 64.9 °F - 54.0 °F 68% 29.90 in 10.0 mi South 15.0 mph 26.5 mph N/A   Overcast
11:54 AM 63.0 °F - 57.0 °F 81% 29.85 in 6.0 mi South 16.1 mph 25.3 mph 0.01 in Rain Rain
12:35 PM 62.6 °F - 59.0 °F 88% 29.79 in 5.0 mi South 15.0 mph 25.3 mph 0.07 in Rain Light Rain
12:54 PM 62.1 °F - 59.0 °F 90% 29.77 in 3.0 mi South 17.3 mph 25.3 mph 0.10 in Rain Rain
1:12 PM 62.6 °F - 59.0 °F 88% 29.73 in 2.0 mi SSE 17.3 mph 32.2 mph 0.06 in Rain Rain
1:22 PM 62.6 °F - 59.0 °F 88% 29.71 in 2.5 mi South 16.1 mph 26.5 mph 0.11 in Rain Heavy Rain
1:32 PM 62.6 °F - 60.8 °F 94% 29.70 in 2.5 mi SSE 18.4 mph 24.2 mph 0.15 in Rain Heavy Rain
1:41 PM 62.6 °F - 60.8 °F 94% 29.69 in 3.0 mi South 18.4 mph 29.9 mph 0.17 in Rain Rain
1:54 PM 63.0 °F - 60.1 °F 90% 29.70 in 3.0 mi South 19.6 mph 29.9 mph 0.19 in Rain Light Rain
2:02 PM 62.6 °F - 60.8 °F 94% 29.70 in 2.5 mi South 21.9 mph 32.2 mph 0.03 in Rain Heavy Rain
2:07 PM 62.6 °F - 60.8 °F 94% 29.69 in 2.5 mi South 24.2 mph 33.4 mph 0.04 in Rain Light Rain
2:16 PM 62.6 °F - 60.8 °F 94% 29.69 in 4.0 mi South 16.1 mph 27.6 mph 0.06 in Rain Light Rain
2:28 PM 62.6 °F - 60.8 °F 94% 29.67 in 7.0 mi South 20.7 mph 29.9 mph 0.07 in Rain Light Rain
2:54 PM 64.4 °F - 62.6 °F 94% 29.65 in 7.0 mi South 13.8 mph 20.7 mph N/A Rain Light Rain
3:51 PM 66.2 °F - 62.6 °F 88% 29.62 in 2.5 mi SSW 17.3 mph 27.6 mph 0.02 in Rain Rain
3:54 PM 66.0 °F - 62.1 °F 87% 29.62 in 2.5 mi SSW 16.1 mph 27.6 mph 0.02 in Rain Rain
4:00 PM 66.2 °F - 62.6 °F 88% 29.61 in 4.0 mi SSW 16.1 mph 23.0 mph 0.01 in Rain Rain
4:23 PM 64.4 °F - 62.6 °F 94% 29.62 in 10.0 mi WSW 11.5 mph 19.6 mph 0.01 in   Overcast
4:46 PM 64.4 °F - 60.8 °F 88% 29.63 in 10.0 mi SW 12.7 mph 20.7 mph 0.01 in   Overcast
4:54 PM 64.9 °F - 60.1 °F 84% 29.63 in 10.0 mi SW 16.1 mph 26.5 mph 0.01 in   Mostly Cloudy
5:54 PM 63.0 °F - 57.0 °F 81% 29.63 in 10.0 mi SW 11.5 mph - N/A   Clear
6:54 PM 61.0 °F - 53.1 °F 75% 29.65 in 10.0 mi SW 12.7 mph 19.6 mph N/A   Clear
7:54 PM 60.1 °F - 52.0 °F 75% 29.65 in 10.0 mi SW 9.2 mph - N/A   Partly Cloudy
8:54 PM 59.0 °F - 50.0 °F 72% 29.64 in 10.0 mi SW 10.4 mph 19.6 mph N/A   Partly Cloudy
9:54 PM 55.9 °F - 50.0 °F 80% 29.65 in 10.0 mi WSW 6.9 mph - N/A   Clear
10:54 PM 55.0 °F - 42.1 °F 62% 29.66 in 10.0 mi West 11.5 mph 23.0 mph N/A   Mostly Cloudy
11:54 PM 52.0 °F - 39.9 °F 63% 29.69 in 10.0 mi West 18.4 mph 26.5 mph N/A   Partly Cloudy